Voltar ao catálogo

STARLINK-37266

AtivoComunicaçõesSSO
NORAD 68780·PAYLOAD·🇺🇸 United States

Lançado Apr 19, 2026 de Vandenberg Space Force Base

Loading…

Próximas Passagens (próximas 24 horas)

TLE

AtualizadoSource: CelesTrak SupGP

Época: Sep 15, 2026, 03:56 UTC

1 68780C 26086Q   26258.16437500 -.00052505  00000+0 -16298-2 0  2584
2 68780  97.2842 293.6887 0001088  93.9085  82.8789 15.33468107    18

Acompanhe STARLINK-37266 em tempo real com AllMySat

Download on the App Store